星链-32648 (STARLINK-32648)

导读 | 豆包AI

STARLINK-32648是美国太空探索技术公司(SpaceX)星链互联网卫星星座中的一员,于2024年12月13日发射入轨。星链项目旨在构建全球覆盖的低轨卫星互联网星座,为全球偏远地区、海洋等网络覆盖薄弱区域提供高速互联网接入服务,该卫星加入星座后将进一步扩展星链的网络服务覆盖范围与容量。

基本信息
目录编号:
62301
目录名称:
STARLINK-32648
国际标识:
2024-239A
轨道中心:
EARTH
卫星名称:
星链-32648
卫星全名:
星链-32648 (STARLINK-32648)
卫星状态:
在轨 (已飞行502 天)
发射日期:
2024-12-13 UTC
国别 :
美国 (US)
星等 :
--
轨道信息
数据来源 国际轨道数据
星历时间: 2026-04-29T23:37:16+0800
7小时前
查看轨道信息
半长轴: 6853.327km
偏心率: 0.0001261
轨道倾角: 53.159°
近地点辐角 96.905°
升交点赤经 304.615°
平近点角 263.210°
近地点: 474.325km
远地点: 476.055km
周期: 94.105分钟
每日圈数: 15.302087
详细信息
固有亮度:
5
最大亮度:
2.5
卫星平台:
Starlink V1.0
覆盖范围:
全球
运营商:
太空探索技术公司
运营商所在国:
美国
制造商(研发单位):
太空探索技术公司
制造商所在国:
美国
使用方式:
暂无
卫星简介
Starlink 计划是 SpaceX 推出的全球卫星互联网项目,通过发射低轨道卫星,为全球尤其是偏远地区提供高速、低延迟的互联网服务。自 2019 年起,Starlink 已部署数千颗卫星,旨在缩小全球数字鸿沟,推动互联网普及。该项目还为军事、航空等行业提供通信支持,带来广泛经济效益。
2D轨道图
3D轨道图
轨道高度分析图
轨道倾角分析图
轨道综合分析图
查看轨道综合分析图